TimeEDT,TemperatureF,Dew PointF,Humidity,Sea Level PressureIn,VisibilityMPH,Wind Direction,Wind SpeedMPH,Gust SpeedMPH,PrecipitationIn,Events,Conditions,WindDirDegrees,DateUTC
12:55 AM,57.9,57.6,99,30.18,1.0,NNE,4.6,-,0.01,Rain,Light Rain,20,2012-10-04 04:55:00
1:55 AM,58.1,57.7,99,30.17,0.8,NNE,3.5,-,0.00,,Light Drizzle,30,2012-10-04 05:55:00
2:55 AM,57.9,57.7,99,30.15,0.8,NE,5.8,-,0.00,,Light Drizzle,50,2012-10-04 06:55:00
3:06 AM,57.2,57.2,100,30.15,0.5,NE,5.8,-,N/A,Fog,Light Drizzle,40,2012-10-04 07:06:00
3:55 AM,58.1,57.7,99,30.17,0.5,North,5.8,-,0.00,Fog,Light Drizzle,360,2012-10-04 07:55:00
4:55 AM,58.1,57.7,99,30.17,1.0,NNE,4.6,-,0.00,,Overcast,20,2012-10-04 08:55:00
5:17 AM,59.0,57.2,94,30.17,1.0,North,5.8,-,N/A,,Overcast,10,2012-10-04 09:17:00
5:40 AM,59.0,57.2,94,30.16,1.5,Variable,4.6,-,N/A,,Overcast,0,2012-10-04 09:40:00
5:55 AM,58.1,57.7,99,30.17,1.5,NNE,3.5,-,N/A,,Overcast,30,2012-10-04 09:55:00
6:15 AM,59.0,57.2,94,30.17,1.0,NE,4.6,-,N/A,,Overcast,40,2012-10-04 10:15:00
6:34 AM,59.0,57.2,94,30.18,1.0,NNE,4.6,-,N/A,,Overcast,30,2012-10-04 10:34:00
6:55 AM,58.1,57.9,99,30.18,1.0,NNE,3.5,-,N/A,,Overcast,20,2012-10-04 10:55:00
7:55 AM,58.5,58.3,99,30.17,1.0,NE,4.6,-,0.00,,Light Drizzle,50,2012-10-04 11:55:00
8:55 AM,58.6,58.5,99,30.15,2.0,ENE,6.9,-,0.00,,Light Drizzle,60,2012-10-04 12:55:00
9:10 AM,59.0,59.0,100,30.17,3.0,ENE,4.6,-,N/A,,Overcast,70,2012-10-04 13:10:00
9:55 AM,59.0,58.6,99,30.17,5.0,Calm,Calm,-,0.00,,Overcast,0,2012-10-04 13:55:00
10:49 AM,59.0,59.0,100,30.16,1.5,NE,4.6,-,N/A,,Light Drizzle,40,2012-10-04 14:49:00
10:55 AM,59.4,59.0,99,30.15,0.8,NE,5.8,-,0.01,,Light Drizzle,40,2012-10-04 14:55:00
11:36 AM,59.0,59.0,100,30.16,1.0,NNE,4.6,-,N/A,,Light Drizzle,30,2012-10-04 15:36:00
11:55 AM,59.5,59.4,99,30.16,1.0,NNE,3.5,-,0.00,,Light Drizzle,30,2012-10-04 15:55:00
12:55 PM,59.5,59.4,99,30.15,1.0,Calm,Calm,-,0.00,,Light Drizzle,0,2012-10-04 16:55:00
1:55 PM,60.1,59.7,99,30.11,1.5,Calm,Calm,-,0.00,,Light Drizzle,0,2012-10-04 17:55:00
2:23 PM,60.8,59.0,94,30.12,3.0,Calm,Calm,-,N/A,Rain,Light Rain,0,2012-10-04 18:23:00
2:55 PM,60.3,59.7,98,30.10,5.0,Calm,Calm,-,0.01,Rain,Light Rain,0,2012-10-04 18:55:00
3:55 PM,59.9,59.7,99,30.07,5.0,ENE,4.6,-,0.04,Rain,Light Rain,70,2012-10-04 19:55:00
4:40 PM,59.0,59.0,100,30.04,2.0,East,8.1,-,N/A,Rain,Light Rain,80,2012-10-04 20:40:00
4:55 PM,58.8,58.6,99,30.06,2.5,NE,3.5,-,0.01,,Light Drizzle,40,2012-10-04 20:55:00
5:10 PM,59.0,59.0,100,30.07,5.0,North,3.5,-,N/A,,Light Drizzle,360,2012-10-04 21:10:00
5:45 PM,59.0,59.0,100,30.09,5.0,WSW,3.5,-,N/A,Rain,Light Rain,250,2012-10-04 21:45:00
5:55 PM,59.4,59.0,99,30.09,4.0,SSW,3.5,-,0.00,Rain,Light Rain,210,2012-10-04 21:55:00
6:55 PM,59.0,58.6,99,30.07,4.0,Calm,Calm,-,0.01,Rain,Light Rain,0,2012-10-04 22:55:00
7:37 PM,59.0,59.0,100,30.05,2.0,Calm,Calm,-,N/A,,Light Drizzle,0,2012-10-04 23:37:00
7:55 PM,58.8,58.5,99,30.05,1.5,East,3.5,-,0.00,,Light Drizzle,100,2012-10-04 23:55:00
8:04 PM,59.0,59.0,100,30.05,0.8,East,4.6,-,N/A,,Light Drizzle,100,2012-10-05 00:04:00
8:09 PM,59.0,59.0,100,30.05,0.5,East,4.6,-,N/A,Fog,Light Drizzle,90,2012-10-05 00:09:00
8:29 PM,59.0,57.2,94,30.04,0.2,ESE,4.6,-,N/A,Fog,Light Drizzle,110,2012-10-05 00:29:00
8:55 PM,58.3,57.9,99,30.06,0.2,Calm,Calm,-,0.00,Fog-Rain,Light Rain,0,2012-10-05 00:55:00
9:55 PM,58.1,57.9,99,30.06,0.5,Calm,Calm,-,0.01,Fog-Rain,Light Rain,0,2012-10-05 01:55:00
10:14 PM,59.0,57.2,94,30.05,0.8,Calm,Calm,-,N/A,,Light Drizzle,0,2012-10-05 02:14:00
10:55 PM,58.3,57.9,99,30.04,0.5,Calm,Calm,-,0.00,Fog,Fog,0,2012-10-05 02:55:00
11:09 PM,59.0,57.2,94,30.04,0.2,Calm,Calm,-,N/A,Fog,Fog,0,2012-10-05 03:09:00
11:55 PM,58.1,57.7,99,30.04,0.2,Calm,Calm,-,N/A,Fog,Fog,0,2012-10-05 03:55:00